sat.trackr.live / text

‹ back to catalog

STARLINK-36291

NORAD 67195 · 2025-304D

PAYLOAD ACTIVE UNKNOWN

§ Identity

Operator
Country
US
Launch date
2025-12-17
Launch site
AFWTR
Launch vehicle
Mass (kg)
RCS (m²)

Purposes: comms

External: N2YO · Heavens-Above · Gunter

§ Orbital elements

Epoch: 2026-09-19T15:42:40.112352Z

Period
96.11 min
Inclination
70.0015°
Eccentricity
0.0002786
Mean motion
14.98336300 rev/d
Perigee alt
570.1 km
Apogee alt
574.0 km
Semi-major
6,950.2 km
B*
1.9913e-4
RAAN
45.6040°
Arg perigee
270.6599°
Mean anomaly
89.4241°
Rev number
4,293

§ Raw data

STARLINK-362911 67195U 25304D   26262.65463093  .00002284  00000+0  19913-3 0  99972 67195  70.0015  45.6040 0002786 270.6599  89.4241 14.98336300 42936

JSON: /api/v1/satellites/67195 · /tle

For live sub-satellite position, see the globe view (requires WebGL).

§ Visibility from observer

Set your observer location to see the next 7 days of passes ≥ 10°. The values pass through the URL so the page stays shareable.

No JS? Fill the form by hand. The geolocation button needs JavaScript.